GFSCGP_925_rhum_183.txt.gz
RH
38 40 42 30 31 24 30 40 37 31 31 35 32 32 31 28 29 28 25 23 36 58 54 70 74 70 71 73 68 65 67 64 64 80 76 75 75 79 82 80 61 56 52 46
34 46 40 38 38 39 38 42 43 38 34 39 39 40 32 29 28 26 24 23 26 45 64 73 72 70 71 72 68 70 68 68 72 74 71 71 76 79 83 85 74 62 55 51
33 30 33 42 43 47 46 48 47 46 38 39 41 32 21 22 27 25 23 22 22 34 55 70 69 70 71 70 69 67 68 74 74 76 76 81 84 88 86 86 83 79 61 56
33 26 30 32 35 41 42 40 41 42 49 44 38 41 28 23 21 22 22 24 23 33 53 60 65 68 69 70 71 71 73 74 74 68 71 72 67 70 77 82 86 84 72 62
29 29 34 35 32 28 32 28 35 43 46 49 37 42 25 23 22 20 30 50 48 45 42 57 61 64 67 71 72 74 76 72 71 72 72 71 70 79 85 86 86 85 84 77
29 23 22 25 24 26 25 26 29 33 35 40 32 36 26 31 59 48 52 55 58 54 44 52 58 63 68 76 80 78 72 73 72 76 74 72 78 82 82 82 80 82 82 84
48 44 32 23 24 29 27 31 35 36 44 39 26 35 29 54 64 63 66 64 61 59 62 62 62 63 67 74 77 78 71 75 79 74 72 76 78 80 80 81 79 82 83 83
57 54 47 38 36 39 37 34 41 45 37 33 34 37 31 65 58 58 60 62 62 62 61 63 65 65 68 72 73 69 70 76 79 79 80 83 82 82 80 81 82 80 84 84
77 63 45 48 39 38 46 45 34 47 43 53 37 44 77 62 67 64 61 59 65 65 64 64 65 67 67 68 71 70 74 79 81 79 76 77 78 80 84 79 74 84 89 87
85 87 55 48 42 44 49 47 65 79 82 61 40 40 41 86 72 59 63 67 65 64 64 64 64 68 66 68 71 77 76 80 83 82 81 83 83 82 85 84 88 88 88 82
45 81 64 52 54 64 65 68 81 79 92 92 80 76 86 85 76 69 57 65 64 65 65 64 64 70 70 71 78 82 81 83 84 82 84 80 82 81 82 83 87 84 80 85
40 70 62 51 42 50 66 87 63 92 87 88 85 82 74 74 70 70 57 49 66 62 64 63 64 69 74 80 83 86 87 91 90 83 88 85 84 86 85 87 87 81 81 99
56 71 62 39 52 62 68 71 72 99 95 76 81 83 81 81 79 74 61 59 67 67 69 67 70 76 82 86 90 91 95 91 91 91 85 86 92 90 95 97 92 91 92 98
57 63 61 61 39 48 59 72 84 77 92 72 68 51 65 81 78 66 62 61 63 72 74 71 79 99 78 81 90 100 100 95 98 98 95 94 98 99 96 86 89 96 92 96
54 61 57 52 49 50 53 50 49 75 60 66 48 46 37 37 41 43 49 54 59 71 74 75 77 94 89 88 99 100 100 100 100 100 100 99 99 96 93 93 93 88 92 94
68 60 47 53 48 51 62 54 59 57 55 59 55 51 34 35 32 32 32 44 51 64 70 76 75 78 88 92 98 99 100 99 100 98 98 99 95 94 92 92 88 89 91 93
96 91 78 79 54 58 86 66 61 65 51 50 56 37 34 36 50 49 53 59 59 59 62 70 72 76 83 88 96 97 100 100 100 100 93 89 91 92 90 87 84 83 79 79
90 88 78 77 67 92 44 42 47 52 51 44 40 38 46 53 54 58 59 63 62 58 60 61 67 73 83 86 91 96 98 98 95 91 86 90 91 89 88 86 81 80 77 73
82 85 89 88 71 60 50 46 48 50 42 42 46 52 49 48 48 42 46 56 63 70 69 69 70 68 82 87 88 91 91 94 94 89 90 93 91 97 96 85 76 75 72 70
74 80 87 83 92 78 39 38 36 35 53 46 51 53 51 56 45 43 51 70 71 70 71 73 79 81 83 83 90 90 93 95 98 99 99 97 97 97 95 84 77 68 64 62
95 95 91 80 82 53 40 38 35 52 42 53 53 50 60 64 54 48 62 70 75 75 74 76 77 79 84 89 88 90 95 98 100 98 98 97 97 96 84 76 70 62 59 59
66 84 92 85 95 86 43 45 39 35 44 50 54 55 61 60 63 69 71 80 79 74 76 79 82 85 87 86 88 95 98 100 98 98 97 97 97 87 75 68 63 58 62 70
70 58 64 68 63 51 48 39 48 49 51 56 54 51 59 64 65 68 75 80 80 78 77 82 84 95 91 87 89 93 100 98 98 98 99 98 84 75 68 61 58 57 59 66
53 51 62 60 47 48 53 50 42 34 36 42 46 50 60 61 66 67 75 78 82 83 85 88 90 95 95 93 91 93 100 100 100 99 97 75 66 68 64 65 64 63 67 70
62 66 53 53 47 49 48 49 33 31 48 58 53 48 48 55 52 55 70 77 77 81 86 100 95 98 99 100 100 100 100 99 99 90 69 64 68 65 66 72 77 78 83 77
56 59 69 65 47 48 43 46 41 39 38 39 44 46 46 47 50 56 75 75 77 78 83 100 98 99 100 100 100 99 98 99 92 72 68 67 68 66 68 78 87 65 66 80

GFSCGP_925_rhum_186.txt.gz
RH
26 26 27 20 19 19 19 20 22 20 17 22 24 23 20 18 19 21 19 17 14 12 14 22 39 54 58 61 62 60 60 64 67 63 56 55 55 57 58 59 68 67 65 64
26 32 23 22 27 26 26 28 28 23 20 28 26 24 19 18 17 16 16 16 14 12 13 24 41 57 62 63 64 62 58 64 63 55 51 50 52 56 59 65 68 70 68 64
27 22 22 25 28 32 32 33 31 29 24 24 23 21 16 15 16 15 16 15 14 15 16 19 42 56 60 63 67 63 60 64 58 51 52 54 57 62 65 70 70 71 69 65
22 20 22 24 26 25 33 22 26 30 29 30 19 31 20 16 16 16 22 28 29 29 26 24 32 50 58 62 67 63 62 62 57 55 53 55 56 58 58 61 64 69 69 67
22 21 22 25 24 21 26 21 23 25 28 28 25 29 22 16 18 16 28 34 37 36 35 29 31 41 53 61 66 66 63 61 58 60 56 58 51 50 60 63 72 68 71 70
24 17 19 18 19 21 20 25 26 24 26 33 24 24 20 19 27 32 36 39 42 41 42 40 37 43 49 61 67 67 64 64 63 66 58 56 51 57 62 67 68 67 66 68
27 29 23 19 21 18 21 26 33 33 34 34 18 21 21 36 45 46 46 43 44 43 45 43 43 44 50 60 68 71 69 68 67 66 63 60 64 68 69 70 63 65 65 66
39 36 37 32 29 25 22 24 35 38 30 24 17 26 26 47 44 40 40 40 41 42 44 44 46 50 50 58 66 74 74 68 71 73 73 75 77 75 73 64 70 66 63 69
61 50 38 37 37 34 34 41 24 36 30 34 28 33 51 48 48 44 38 36 40 43 46 47 47 52 54 57 62 68 69 70 77 82 86 87 82 77 75 76 75 73 75 85
54 68 35 42 41 35 40 31 53 46 69 51 31 27 24 53 49 42 37 35 36 42 46 48 49 55 57 58 62 66 69 76 88 92 89 87 85 82 83 81 80 78 82 88
31 46 50 32 39 72 90 89 86 85 98 84 64 43 50 47 42 38 38 33 38 43 48 49 52 58 59 61 67 72 77 85 90 89 89 87 87 85 80 82 82 83 88 92
27 39 63 44 25 24 39 57 55 93 94 93 89 71 50 46 43 41 36 30 38 47 49 50 52 58 63 68 72 78 83 86 89 89 88 91 91 92 97 99 100 99 100 99
31 38 42 30 20 18 31 36 43 74 89 84 87 76 55 53 54 43 45 40 38 50 52 53 55 59 64 71 78 84 89 90 89 89 91 94 95 100 100 100 99 99 99 99
54 52 42 44 27 21 42 84 63 88 92 76 78 54 41 44 41 34 34 33 34 39 53 55 58 87 64 68 75 83 89 92 93 94 95 100 100 100 100 98 98 99 96 90
67 88 53 41 35 32 34 35 34 41 40 54 43 38 34 29 31 26 23 23 31 36 45 53 55 72 65 68 71 75 91 100 99 100 100 100 100 100 99 98 99 92 86 81
60 87 64 55 37 31 34 29 29 29 28 27 29 32 24 26 24 25 24 23 26 28 40 46 56 57 68 65 74 88 100 100 95 99 100 100 99 99 99 98 87 83 79 75
78 86 89 80 36 36 57 39 34 41 31 31 41 30 25 25 27 26 28 33 37 43 42 43 50 52 62 66 75 91 99 100 100 99 99 99 99 99 91 81 77 77 75 72
63 64 71 83 62 86 37 20 21 28 30 28 29 31 24 26 26 36 35 39 39 35 39 42 42 48 52 67 75 91 99 100 100 100 100 99 97 85 80 76 72 68 69 62
50 53 70 86 64 40 29 27 36 38 38 27 28 27 27 31 36 30 26 34 41 45 45 47 49 50 50 59 74 92 98 100 100 100 100 100 98 85 78 84 98 94 66 55
40 58 67 58 80 77 30 19 20 27 43 21 25 30 35 34 38 28 35 41 45 45 49 51 56 60 59 63 81 94 99 100 100 100 100 100 99 98 99 99 96 77 59 49
52 77 91 79 75 46 23 26 26 51 36 22 29 32 34 40 33 37 37 39 48 52 53 56 58 61 74 83 90 95 98 98 100 100 100 98 97 99 99 99 85 60 48 44
48 49 80 76 83 83 25 28 35 24 27 30 32 32 37 37 41 41 40 44 50 51 55 59 60 62 76 86 89 94 98 100 100 99 99 99 99 99 99 94 64 44 42 50
66 38 42 48 73 61 47 29 31 28 30 32 33 35 33 38 38 38 38 40 46 52 54 60 60 71 76 83 87 96 100 100 100 99 99 99 99 99 97 70 48 40 44 53
53 68 58 47 36 37 39 34 32 30 28 33 31 22 22 27 31 33 29 30 42 51 57 63 66 78 81 84 91 96 100 99 100 99 98 98 96 91 77 62 47 45 49 59
40 49 70 70 46 36 33 35 33 30 25 24 29 30 29 30 30 28 25 27 40 49 62 73 87 99 95 89 95 100 100 100 99 96 95 92 86 70 58 54 51 55 64 70
38 46 56 60 42 44 33 28 34 35 30 28 29 28 28 29 28 30 32 36 44 56 64 81 96 100 100 100 100 100 99 99 92 93 85 72 65 52 50 59 74 75 86 80

GFSCGP_925_rhum_189.txt.gz
RH
19 24 23 18 16 16 17 18 19 15 12 14 16 16 15 13 13 13 13 13 14 14 11 10 12 21 30 43 53 58 58 59 59 57 50 49 46 46 47 48 62 57 55 53
20 24 20 18 16 18 20 22 20 17 15 17 18 18 16 14 14 13 13 13 12 12 12 10 10 22 34 43 53 58 58 59 60 54 49 46 44 47 48 55 60 58 58 55
22 18 15 19 19 22 22 26 25 23 18 18 20 20 17 13 10 12 12 12 12 16 18 14 12 25 39 46 52 56 57 57 59 50 47 45 46 48 53 58 61 63 60 54
17 14 17 19 21 20 25 18 19 20 23 27 19 23 16 12 13 13 12 20 23 25 24 23 21 26 43 48 51 56 57 56 58 50 44 44 44 46 51 57 57 61 60 58
18 17 18 20 20 17 22 17 20 21 24 25 22 25 19 14 14 12 17 25 27 28 29 30 26 23 38 46 52 62 60 57 59 54 45 47 45 46 50 53 62 61 62 62
21 16 18 18 15 16 16 20 20 22 24 37 26 24 21 16 13 12 24 28 32 31 33 32 30 32 33 44 54 66 66 62 62 56 51 50 49 46 50 55 62 61 61 62
19 18 18 19 24 17 18 23 32 29 33 36 19 20 17 22 29 30 32 31 33 33 36 34 35 34 37 42 64 71 71 66 64 61 58 58 55 48 53 61 59 60 58 60
30 27 16 24 30 26 22 21 32 36 29 22 14 22 17 25 31 31 31 30 30 31 34 35 38 40 40 48 58 72 72 68 66 72 69 65 59 57 60 62 60 61 65 71
37 31 28 29 30 32 30 33 22 34 28 35 25 18 30 33 36 33 30 28 30 33 35 36 37 43 44 46 51 69 74 72 69 74 79 76 73 72 72 69 67 68 80 81
34 54 28 24 33 28 40 44 61 49 80 62 31 25 19 31 36 33 30 28 29 31 36 38 40 45 48 49 51 65 75 71 78 85 88 87 81 81 79 75 76 82 85 91
28 44 52 34 38 32 30 56 94 91 87 95 75 43 45 51 52 46 31 28 25 31 34 38 41 47 50 53 62 73 74 88 93 93 92 90 88 85 81 80 84 84 88 87
25 34 45 33 20 18 24 38 48 94 89 75 90 69 60 56 55 40 40 28 24 30 34 38 41 46 52 59 68 75 83 89 93 95 94 93 90 87 87 87 88 91 92 91
47 54 54 39 25 17 19 17 20 31 55 88 88 72 55 55 73 56 36 29 28 28 33 38 43 48 54 63 69 79 82 88 93 97 97 96 97 98 96 95 95 98 99 99
46 48 53 60 37 24 30 24 29 45 89 86 91 82 54 46 44 39 33 30 26 24 27 40 42 74 55 64 70 76 82 86 90 93 96 99 100 100 100 100 100 99 100 99
49 68 45 40 34 31 34 22 21 47 72 88 58 46 30 22 27 37 33 22 19 18 24 30 41 62 58 62 67 75 84 87 90 91 96 100 100 100 100 99 99 99 98 98
33 68 52 51 37 34 39 35 36 29 26 21 22 24 17 16 18 41 34 20 20 19 20 25 34 42 60 57 66 67 80 87 94 100 100 100 100 99 99 99 98 100 97 90
47 62 62 75 41 42 80 45 28 35 20 21 30 23 17 18 18 25 24 20 21 24 34 33 34 38 48 56 59 64 83 98 100 100 100 100 100 99 99 99 98 99 95 79
40 43 51 80 61 84 37 30 26 23 22 20 19 21 20 18 20 24 25 27 26 30 30 31 31 31 35 52 57 69 82 96 100 100 100 99 99 98 98 99 98 86 70 64
32 44 62 76 82 53 35 25 25 22 26 16 16 20 22 18 20 25 21 24 28 30 29 28 32 36 36 36 57 75 91 94 100 100 100 100 100 100 99 82 72 69 69 71
27 32 55 55 78 78 33 17 26 29 33 23 21 19 18 18 35 32 36 29 29 29 31 35 38 41 45 49 49 81 97 99 100 100 100 99 100 99 98 87 97 99 82 57
39 72 82 64 62 39 22 17 17 79 34 20 18 18 20 28 25 37 33 28 29 30 34 41 40 45 54 68 68 89 98 99 100 100 99 99 99 98 98 97 98 77 51 44
48 51 59 75 87 80 34 22 29 36 27 27 23 21 25 24 34 31 28 30 30 28 30 36 42 49 58 72 87 97 100 100 100 100 100 99 99 99 98 99 89 57 45 44
51 58 80 68 60 74 54 48 40 61 40 32 41 23 25 26 29 26 26 23 24 28 28 36 44 54 64 75 86 98 100 100 100 99 99 99 98 98 99 95 68 48 44 52
29 26 40 45 35 37 60 47 37 42 50 28 27 23 25 25 24 22 17 15 16 23 31 38 47 56 66 73 85 100 100 100 99 99 99 99 99 99 98 85 56 44 50 63
31 31 38 38 30 31 35 38 31 28 29 25 25 24 22 21 21 18 18 15 17 24 29 43 55 66 72 80 95 100 99 98 99 99 99 98 98 98 94 68 50 53 63 79
27 32 44 58 30 30 32 32 36 35 32 26 25 24 25 23 23 20 20 20 21 26 31 46 68 80 91 96 100 98 97 99 97 94 96 95 97 93 75 56 58 62 73 73

GFSCGP_925_rhum_195.txt.gz
RH
29 40 44 35 32 28 27 26 27 23 19 21 24 24 20 16 18 18 20 20 19 18 16 14 12 11 22 57 72 74 72 79 72 66 55 50 55 52 56 55 55 54 51 44
36 40 29 25 26 26 26 28 28 23 20 21 24 22 21 19 18 18 18 20 21 19 18 18 18 17 16 40 72 71 70 78 70 67 58 57 52 53 54 55 56 55 51 47
38 31 22 24 25 25 24 27 29 28 23 21 24 23 20 17 17 15 15 14 15 17 22 30 31 32 29 58 69 70 69 75 69 65 61 56 52 55 57 56 58 55 52 49
28 22 22 23 25 23 27 22 23 24 29 38 21 36 24 20 19 17 16 17 24 36 36 38 40 41 36 61 69 68 69 72 68 64 60 57 56 59 67 67 61 57 54 51
28 23 25 26 22 19 23 23 22 23 29 32 27 36 26 20 22 18 16 15 41 46 44 42 42 40 53 63 68 67 69 70 68 64 61 57 57 56 63 64 61 58 56 55
28 21 21 21 20 18 19 23 26 25 29 42 24 35 25 20 22 26 31 37 42 45 43 42 43 50 79 78 73 72 72 72 70 67 61 57 56 61 69 67 63 62 58 60
27 25 20 18 23 21 24 31 54 49 51 43 22 32 24 30 34 33 39 42 43 47 48 52 56 57 69 83 85 77 72 72 72 68 66 63 54 58 67 69 68 62 62 65
35 37 20 26 36 45 38 37 63 69 63 63 38 49 29 55 57 59 47 46 44 46 52 57 58 58 51 71 80 82 83 82 79 75 69 57 52 59 69 69 68 67 65 70
45 32 25 25 28 32 46 59 39 54 60 76 52 38 26 52 65 63 68 71 73 75 54 53 55 53 65 84 83 78 78 78 75 73 71 69 62 64 70 72 70 70 70 77
33 49 31 30 25 26 35 30 65 70 91 73 44 36 36 85 80 73 76 80 79 77 72 71 59 57 75 80 86 83 85 92 90 81 77 78 77 71 71 71 72 75 80 78
36 43 42 30 32 35 43 57 65 76 91 95 78 62 62 88 83 85 79 72 81 83 78 82 82 66 73 76 85 90 89 90 92 92 95 91 89 80 80 78 81 81 81 82
52 52 61 41 31 28 30 34 36 76 62 85 81 69 37 61 76 73 69 61 78 76 75 82 84 64 70 75 83 92 93 94 98 97 97 96 94 91 87 88 89 88 88 91
48 70 80 48 35 33 37 32 34 42 61 62 84 79 37 59 62 58 57 59 57 63 62 65 78 79 75 80 85 89 93 97 98 98 96 98 98 97 100 97 96 95 93 91
46 58 68 69 54 49 54 43 34 43 70 60 59 54 40 36 36 47 53 53 52 52 54 51 71 87 73 81 81 88 92 95 98 99 100 100 99 100 100 100 99 98 96 95
53 72 59 53 46 47 47 46 43 51 46 55 44 36 28 26 28 44 46 40 41 40 38 40 45 81 78 81 83 84 87 94 97 98 99 99 100 100 100 100 98 96 98 99
41 70 52 59 45 42 44 36 34 33 32 34 35 36 25 37 34 32 43 36 37 40 34 33 30 72 74 78 80 87 90 93 94 99 99 100 100 100 99 99 100 100 100 99
55 74 74 72 49 51 69 45 39 41 35 36 44 33 43 50 45 38 32 32 39 40 31 62 71 71 74 77 76 85 87 89 96 100 100 100 100 100 100 100 100 99 99 99
50 56 71 71 59 90 45 28 26 29 28 26 30 40 41 42 42 48 59 44 53 46 65 66 62 75 79 75 75 81 86 94 99 100 100 100 100 100 100 100 100 100 100 99
37 47 74 73 70 52 45 36 36 39 45 29 54 45 43 60 51 60 63 55 68 76 80 70 46 41 61 74 76 84 90 96 100 100 100 100 99 100 100 99 98 99 98 98
33 41 58 77 95 94 42 54 51 50 55 57 62 64 72 65 82 77 68 66 66 70 70 58 38 53 65 76 76 83 96 100 100 100 100 100 100 100 100 100 100 100 97 98
59 78 83 85 94 76 53 47 52 79 67 60 62 75 72 91 87 72 70 62 58 61 37 36 53 66 71 65 82 89 99 99 100 100 100 100 100 100 100 100 99 99 99 98
72 81 91 86 90 80 48 56 66 60 61 62 64 65 72 70 74 78 75 60 38 39 38 47 61 69 72 78 90 96 99 98 99 100 100 100 99 100 99 99 99 100 98 97
88 93 96 95 90 66 50 61 60 66 76 70 71 66 61 66 68 79 96 77 33 37 40 52 65 73 78 80 89 100 100 99 99 100 100 100 100 99 99 99 99 99 98 98
52 44 77 92 57 43 39 61 60 60 66 60 55 56 52 64 60 73 78 77 32 36 41 55 64 74 83 83 86 96 99 100 100 100 100 99 99 99 98 98 98 97 93 97
65 58 62 59 48 44 39 43 55 61 57 56 51 41 38 58 61 59 63 46 28 38 45 52 66 76 84 88 97 98 99 100 100 100 99 99 99 99 99 99 98 88 86 92
62 62 78 69 46 56 47 39 38 45 38 38 40 40 37 49 58 61 53 35 29 41 52 62 70 75 87 94 99 99 100 99 100 100 99 100 99 98 98 98 97 97 95 89

GFSCGP_925_rhum_198.txt.gz
RH
31 40 45 40 37 34 34 36 38 30 24 28 27 29 26 22 20 22 20 21 21 21 17 15 22 56 68 77 83 87 88 92 93 83 76 69 63 53 51 51 57 58 56 52
39 47 36 33 34 34 36 38 37 31 26 25 28 25 22 20 20 19 19 21 22 21 20 19 20 20 56 68 80 84 86 90 90 81 72 63 62 66 55 59 60 58 57 51
40 37 31 31 33 35 34 36 33 32 25 24 26 24 22 18 18 18 18 20 25 32 35 43 43 40 43 46 72 79 83 86 86 78 70 60 61 66 66 64 61 60 58 52
36 29 32 32 31 29 36 23 22 23 28 36 25 36 24 21 22 20 21 25 52 50 46 48 54 68 82 85 58 76 81 85 82 76 69 64 63 68 68 64 60 58 55 51
35 26 29 29 28 25 29 24 23 23 26 30 33 37 29 21 22 33 41 43 53 54 53 55 54 55 77 94 83 77 79 85 80 75 70 67 64 65 66 69 62 58 55 52
31 24 23 25 22 21 22 24 29 30 32 37 32 34 24 43 65 58 64 67 60 56 58 57 53 53 60 82 90 84 78 82 80 77 71 66 64 69 74 71 63 58 56 54
29 28 22 20 25 28 24 37 54 54 51 47 37 38 29 71 73 76 77 76 76 76 68 64 62 66 74 84 92 95 89 87 82 75 69 69 68 66 64 65 67 62 60 61
42 38 26 30 39 44 39 39 62 64 62 63 45 54 46 66 60 65 72 72 72 76 76 77 73 76 81 87 83 93 98 98 92 85 78 76 72 70 72 70 69 66 65 62
45 38 30 27 27 32 46 60 41 63 69 80 62 45 66 56 66 67 71 75 79 74 71 68 71 73 80 81 86 87 97 98 98 97 94 90 91 79 75 73 70 69 69 68
30 41 33 26 26 28 35 30 54 76 87 88 59 51 44 70 69 71 68 76 76 74 66 63 69 72 70 75 74 78 86 98 98 100 95 88 80 80 75 74 74 74 77 76
38 46 40 28 37 42 47 55 61 69 85 94 77 54 74 74 70 62 71 65 75 77 76 76 79 75 72 72 70 75 84 95 97 100 98 94 94 85 82 80 83 82 81 78
50 55 60 45 32 29 34 45 49 80 67 88 91 64 41 50 68 70 72 66 70 77 77 79 84 78 84 76 69 75 83 90 99 100 99 100 100 99 91 84 85 82 85 90
47 69 71 40 42 41 42 40 41 49 70 70 83 58 34 36 40 42 49 54 52 66 75 72 88 84 86 76 70 70 77 89 99 100 100 100 99 98 100 100 100 100 98 97
47 60 56 52 57 51 56 48 45 53 88 60 60 54 43 38 34 31 30 29 39 40 51 61 82 86 86 84 78 82 89 92 98 100 100 100 100 99 98 99 100 98 100 100
56 67 60 56 52 48 51 53 50 56 53 65 53 49 39 30 28 27 34 37 33 34 36 45 60 74 87 86 81 84 88 94 99 100 100 100 100 100 100 100 99 99 99 96
43 67 50 53 45 44 49 45 44 42 40 38 36 37 26 25 27 34 42 38 38 38 33 32 37 63 83 81 84 86 90 95 99 100 100 100 100 100 100 100 100 100 99 99
58 70 70 63 42 54 73 43 39 48 36 38 49 38 29 31 35 42 42 46 44 42 36 33 42 44 76 80 84 93 92 92 100 100 100 100 100 99 100 100 100 100 100 99
58 63 76 82 64 97 44 33 32 36 33 32 31 32 31 31 35 57 53 54 56 49 55 69 80 78 82 84 81 68 85 94 98 100 100 100 99 100 100 100 100 99 98 98
42 58 82 84 81 54 42 37 39 51 68 53 60 60 51 53 65 65 49 55 72 76 75 70 70 77 83 86 89 92 95 100 100 100 100 100 99 100 100 100 100 100 100 100
42 51 62 94 94 92 54 49 45 58 81 61 64 67 72 72 89 80 63 69 71 74 68 74 65 60 61 86 85 92 98 100 100 100 100 100 100 100 99 99 100 99 99 98
66 87 78 73 89 73 57 46 53 80 66 65 72 76 78 91 86 68 83 84 82 73 77 62 72 81 82 81 81 92 99 99 99 100 100 100 99 99 100 100 100 100 99 97
66 82 91 93 96 90 61 50 68 56 57 66 72 75 78 75 71 70 80 84 76 84 58 67 75 84 87 87 90 96 99 100 99 98 100 100 100 100 100 100 100 99 98 98
81 79 85 89 91 87 70 72 54 64 68 77 74 64 61 66 67 74 82 82 84 82 59 67 69 77 76 88 92 98 99 95 98 100 100 100 100 100 100 99 99 99 98 98
58 51 81 81 61 66 65 53 66 61 75 70 69 58 57 56 66 70 74 76 85 77 65 68 71 78 80 77 85 100 98 99 100 100 100 100 100 99 99 99 99 99 99 99
73 58 60 56 49 50 47 45 46 56 64 68 64 61 54 52 60 67 74 74 71 63 53 66 70 80 82 82 85 96 100 98 100 100 100 100 100 100 99 99 98 98 97 92
66 61 81 74 50 56 51 49 55 58 58 54 56 50 41 40 47 59 69 63 59 48 51 67 76 84 90 91 99 98 98 98 100 100 100 100 100 100 99 98 98 98 95 97